KM4NDI Weather Reports


Display with metric or nautical units.
time (UTC)temp
F
wind
direction
speed
MPH
gust
MPH
rain 1hr
in
rain 24hr
in
rain mn
in
humidity
%
barometer
mb
20260903120522 72 0.0 0.0 0.00 0.00 0.00 99 1018.9
20260903115525 71 0.0 0.0 0.00 0.00 0.00 99 1018.9
20260903114528 71 0.0 0.0 0.00 0.00 0.00 99 1018.8
20260903113532 71 0.0 0.0 0.00 0.00 0.00 99 1018.7
20260903112537 71 0.0 0.0 0.00 0.00 0.00 99 1018.4
20260903111520 71 0.0 0.0 0.00 0.00 0.00 99 1018.3
20260903110523 72 0.0 0.0 0.00 0.00 0.00 99 1018.3
20260903105520 72 0.0 0.0 0.00 0.00 0.00 99 1018.2
20260903104517 72 0.0 0.0 0.00 0.00 0.00 99 1018.2
20260903103532 72 0.0 0.0 0.00 0.00 0.00 99 1018.2
20260903102517 72 0.0 0.0 0.00 0.00 0.00 99 1018.1
20260903101521 72 0.0 0.0 0.00 0.00 0.00 99 1018.2
20260903100523 72 0.0 0.0 0.00 0.00 0.00 99 1018.2
20260903095527 72 0.0 0.0 0.00 0.00 0.00 99 1018.2
20260903094530 72 0.0 0.0 0.00 0.00 0.00 99 1018.1
20260903093515 72 0.0 0.0 0.00 0.00 0.00 99 1018.1
20260903092518 72 0.0 0.0 0.00 0.00 0.00 99 1018.1
20260903091521 73 0.0 0.0 0.00 0.00 0.00 99 1018.1
20260903090544 73 0.0 0.0 0.00 0.00 0.00 99 1018.1
20260903085527 73 0.0 0.0 0.00 0.00 0.00 99 1018.0
20260903084530 73 0.0 0.0 0.00 0.00 0.00 99 1018.0
20260903083515 73 0.0 0.0 0.00 0.00 0.00 99 1018.0
20260903082519 73 0.0 0.0 0.00 0.00 0.00 99 1018.0
20260903081522 73 0.0 0.0 0.00 0.00 0.00 99 1017.9
20260903080525 73 0.0 0.0 0.00 0.00 0.00 99 1017.9
20260903075528 73 0.0 0.0 0.00 0.00 0.00 99 1017.9
20260903074545 73 0.0 0.0 0.00 0.00 0.00 99 1017.9
20260903073516 73 0.0 0.0 0.00 0.00 0.00 99 1018.0
20260903072539 73 0.0 0.0 0.00 0.00 0.00 99 1018.0
20260903071517 74 0.0 0.0 0.00 0.00 0.00 99 1018.0
20260903070526 74 0.0 0.0 0.00 0.00 0.00 99 1018.0
20260903065529 74 0.0 0.0 0.00 0.00 0.00 99 1017.9
20260903064533 74 0.0 0.0 0.00 0.00 0.00 99 1017.9
20260903063538 74 0.0 0.0 0.00 0.00 0.00 99 1018.0
20260903062521 74 0.0 0.0 0.00 0.00 0.00 99 1018.0
20260903061524 74 0.0 0.0 0.00 0.00 0.00 99 1018.1
20260903060527 74 0.0 0.0 0.00 0.00 0.00 99 1018.1
20260903055530 74 0.0 0.0 0.00 0.00 0.00 99 1018.1
20260903054515 74 0.0 0.0 0.00 0.00 0.00 99 1018.1
20260903053518 75 0.0 0.0 0.00 0.00 0.00 99 1018.1
20260903052521 75 0.0 0.0 0.00 0.00 0.00 99 1018.1
20260903051525 75 0.0 0.0 0.00 0.00 0.00 99 1018.1
20260903050548 75 0.0 0.0 0.00 0.00 0.00 99 1018.1
20260903045531 75 0.0 0.0 0.00 0.00 0.00 98 1018.0
20260903044516 75 0.0 0.0 0.00 0.00 0.00 97 1018.0
20260903043539 75 0.0 0.0 0.00 0.00 0.00 97 1018.0
20260903042522 75 0.0 0.0 0.00 0.00 0.00 98 1018.1
20260903041525 76 0.0 0.0 0.00 0.00 0.00 97 1018.1
20260903040522 76 0.0 0.0 0.00 0.00 0.00 97 1018.1
20260903035539 76 0.0 0.0 0.00 0.00 0.00 96 1018.1
20260903034517 76 0.0 0.0 0.00 0.00 0.00 96 1018.2
20260903033520 76 0.0 0.0 0.00 0.00 0.00 96 1018.2
20260903032523 76 0.0 0.0 0.00 0.00 0.00 96 1018.4
20260903031526 77 0.0 0.0 0.00 0.00 0.00 96 1018.4
20260903030529 77 0.0 0.0 0.00 0.00 0.00 95 1018.4
20260903025532 77 0.0 0.0 0.00 0.00 0.00 95 1018.3
20260903024517 77 0.0 0.0 0.00 0.00 0.00 93 1018.4
20260903023520 77 0.0 0.0 0.00 0.00 0.00 92 1018.3
20260903022524 78 0.0 0.0 0.00 0.00 0.00 92 1018.3
20260903021527 78 0.0 0.0 0.00 0.00 0.00 92 1018.3
20260903020550 78 0.0 0.0 0.00 0.00 0.00 91 1018.3
20260903015515 79 0.0 0.0 0.00 0.00 0.00 90 1018.0
20260903014538 79 0.0 0.0 0.00 0.00 0.00 90 1017.8
20260903013521 79 0.0 0.0 0.00 0.00 0.00 88 1017.7
20260903012524 80 0.0 0.0 0.00 0.00 0.00 87 1017.7
20260903011527 80 0.0 0.0 0.00 0.00 0.00 86 1017.7
20260903010611 81 0.0 0.0 0.00 0.00 0.00 83 1017.6
20260903005516 81 0.0 0.0 0.00 0.00 0.00 83 1017.5
20260903004519 82 0.0 0.0 0.00 0.00 0.00 80 1017.3
20260903003522 83 0.0 0.0 0.00 0.00 0.00 78 1017.4
20260903002519 84 0.0 0.0 0.00 0.00 0.00 76 1017.5
20260903001516 85 0.0 0.0 0.00 0.00 0.00 74 1017.4
20260903000531 86 0.0 0.0 0.00 0.00 0.00 71 1017.4
20260902235536 88 0.0 0.0 0.00 0.00 0.00 67 1017.3
20260902234519 89 0.0 0.0 0.00 0.00 0.00 65 1017.2
20260902233523 90 0.0 0.0 0.00 0.00 0.00 60 1017.1
20260902232526 92 0.0 0.0 0.00 0.00 0.00 57 1017.3
20260902231529 93 0.0 0.0 0.00 0.00 0.00 54 1017.3
20260902230532 94 0.0 0.0 0.00 0.00 0.00 53 1017.3
20260902225517 95 0.0 0.0 0.00 0.00 0.00 51 1017.2
20260902224601 97 0.0 0.0 0.00 0.00 0.00 48 1017.3
20260902223544 99 0.0 0.0 0.00 0.00 0.00 46 1017.4
20260902222527 99 0.0 0.0 0.00 0.00 0.00 46 1017.4
20260902221610 98 0.0 0.0 0.00 0.00 0.00 46 1017.5
20260902220535 95 0.0 0.0 0.00 0.00 0.00 50 1017.5
20260902215518 95 0.0 0.0 0.00 0.00 0.00 48 1017.5
20260902214522 96 0.0 0.0 0.00 0.00 0.00 50 1017.5
20260902213545 97 0.0 3.0 0.00 0.00 0.00 46 1017.4
20260902212528 95 117 1.0 3.0 0.00 0.00 0.00 49 1017.6
20260902211525 96 113 0.0 3.0 0.00 0.00 0.00 51 1017.7
20260902210536 95 0.0 0.0 0.00 0.00 0.00 52 1017.8
20260902205539 96 203 1.0 3.0 0.00 0.00 0.00 50 1017.8
20260902204516 95 168 1.0 2.0 0.00 0.00 0.00 58 1017.8
20260902203525 95 0.0 0.0 0.00 0.00 0.00 53 1018.1
20260902202528 96 0.0 0.0 0.00 0.00 0.00 50 1018.2
20260902201552 94 0.0 0.0 0.00 0.00 0.00 53 1018.2
20260902200517 97 0.0 0.0 0.00 0.00 0.00 45 1018.3
20260902195540 99 242 1.0 3.0 0.00 0.00 0.00 42 1018.3
20260902194523 96 0.0 0.0 0.00 0.00 0.00 48 1018.7
20260902193526 95 0.0 0.0 0.00 0.00 0.00 50 1018.9
20260902192529 98 126 2.0 3.0 0.00 0.00 0.00 47 1019.0
20260902191532 99 0.0 1.0 0.00 0.00 0.00 42 1019.1
20260902190538 100 297 2.0 5.0 0.00 0.00 0.00 40 1019.2
20260902185521 97 119 1.0 4.0 0.00 0.00 0.00 44 1019.4
20260902184524 98 64 1.0 3.0 0.00 0.00 0.00 45 1019.5
20260902183526 96 0.0 0.0 0.00 0.00 0.00 49 1019.9
20260902182530 96 0.0 0.0 0.00 0.00 0.00 50 1019.7
20260902181515 95 0.0 0.0 0.00 0.00 0.00 60 1019.8
20260902180518 91 0.0 0.0 0.00 0.00 0.00 66 1019.9
20260902175521 94 0.0 0.0 0.00 0.00 0.00 59 1019.9
20260902174524 94 0.0 0.0 0.00 0.00 0.00 57 1020.1
20260902173522 93 0.0 0.0 0.00 0.00 0.00 57 1020.4
20260902172539 96 0.0 0.0 0.00 0.00 0.00 48 1020.4
20260902171516 97 0.0 0.0 0.00 0.00 0.00 50 1020.5
20260902170539 95 0.0 0.0 0.00 0.00 0.00 51 1020.6
20260902165522 95 0.0 0.0 0.00 0.00 0.00 51 1020.6
20260902164525 98 223 1.0 4.0 0.00 0.00 0.00 45 1020.8
20260902163528 97 0.0 0.0 0.00 0.00 0.00 52 1020.9
20260902162532 95 0.0 0.0 0.00 0.00 0.00 56 1020.9
20260902161516 95 0.0 0.0 0.00 0.00 0.00 53 1021.0
20260902160520 95 0.0 0.0 0.00 0.00 0.00 52 1021.1
20260902155543 94 0.0 0.0 0.00 0.00 0.00 53 1021.2
20260902154526 94 0.0 1.0 0.00 0.00 0.00 57 1021.3
20260902153529 93 270 1.0 3.0 0.00 0.00 0.00 61 1021.3
20260902152532 92 0.0 0.0 0.00 0.00 0.00 65 1021.4
20260902151517 91 0.0 0.0 0.00 0.00 0.00 63 1021.3
20260902150521 90 225 1.0 3.0 0.00 0.00 0.00 65 1021.2
20260902145523 90 0.0 0.0 0.00 0.00 0.00 62 1021.2
20260902144527 88 0.0 0.0 0.00 0.00 0.00 72 1021.3
20260902143530 87 0.0 0.0 0.00 0.00 0.00 72 1021.1
20260902142515 85 0.0 0.0 0.00 0.00 0.00 76 1021.1
20260902141518 85 0.0 0.0 0.00 0.00 0.00 77 1021.1
20260902140522 83 0.0 0.0 0.00 0.00 0.00 82 1021.1
20260902135519 81 0.0 0.0 0.00 0.00 0.00 88 1021.2
20260902134517 78 0.0 0.0 0.00 0.00 0.00 96 1021.2
20260902133532 77 0.0 0.0 0.00 0.00 0.00 98 1021.2
20260902132516 75 0.0 0.0 0.00 0.00 0.00 99 1021.2
20260902131519 74 0.0 0.0 0.00 0.00 0.00 99 1021.1
20260902130522 74 0.0 0.0 0.00 0.00 0.00 99 1021.1
20260902125545 73 0.0 0.0 0.00 0.00 0.00 99 1021.1
20260902124529 72 0.0 0.0 0.00 0.00 0.00 99 1021.1
20260902123532 71 0.0 0.0 0.00 0.00 0.00 99 1020.9
20260902122517 71 0.0 0.0 0.00 0.00 0.00 99 1020.9
20260902121520 71 0.0 0.0 0.00 0.00 0.00 99 1020.8